Location: Asheville, NC
(35.6000°N, 82.5500°W)
Time: 19:38:31
(UTC-04:00)

Envisat - Pass Details

Date: 16 March 2018
Orbit: 764 x 766 km, 98.2° (Epoch: 23 June)

Event Time Altitude Azimuth Distance (km) Brightness Sun altitude
Rises 20:37:41 0° 154° (SSE) 3,212 5.9 -12.8°
Reaches altitude 10° 20:40:01 10° 150° (SSE) 2,290 5.1 -13.3°
Maximum altitude 20:44:56 55° 74° (ENE) 919 3.1 -14.3°
Drops below altitude 10° 20:49:52 10° 357° (N) 2,304 5.6 -15.2°
Sets 20:52:13 0° 353° (N) 3,234 6.5 -15.7°
